| time (UTC) | temp F | wind direction | speed knots | gust knots | rain 1hr in | rain 24hr in | rain mn in | humidity % | barometer mb |
| 20260507064617 | 42 | 139 | 0.0 | 0.0 | 0.00 | 0.00 | 0.00 | 96 | 1018.0 |
| 20260507064116 | 42 | 139 | 0.0 | 0.0 | 0.00 | 0.00 | 0.00 | 96 | 1018.2 |
| 20260507063613 | 42 | 139 | 0.0 | 0.0 | 0.00 | 0.00 | 0.00 | 96 | 1018.2 |
| 20260507063110 | 43 | 139 | 0.0 | 0.0 | 0.00 | 0.00 | 0.00 | 96 | 1018.1 |
| 20260507062606 | 42 | 139 | 0.0 | 0.0 | 0.00 | 0.00 | 0.00 | 96 | 1017.8 |
| 20260507062104 | 43 | 139 | 0.0 | 0.0 | 0.00 | 0.00 | 0.00 | 96 | 1018.0 |
| 20260507061602 | 44 | 138 | 0.0 | 0.0 | 0.00 | 0.00 | 0.00 | 96 | 1017.9 |
| 20260507061100 | 44 | 139 | 0.0 | 0.0 | 0.00 | 0.00 | 0.00 | 96 | 1017.8 |
| 20260507060557 | 44 | 139 | 0.0 | 0.0 | 0.00 | 0.00 | 0.00 | 96 | 1017.8 |
| 20260507060054 | 44 | 138 | 0.0 | 0.0 | 0.00 | 0.00 | 0.00 | 96 | 1017.9 |
| 20260507055554 | 44 | 138 | 0.0 | 0.0 | 0.00 | 0.00 | 0.00 | 96 | 1017.8 |
| 20260507055051 | 44 | 139 | 0.0 | 0.0 | 0.00 | 0.00 | 0.00 | 96 | 1017.9 |
| 20260507054546 | 44 | 139 | 0.0 | 0.0 | 0.00 | 0.00 | 0.00 | 96 | 1017.8 |
| 20260507054044 | 44 | 139 | 0.0 | 0.0 | 0.00 | 0.00 | 0.00 | 96 | 1017.8 |
| 20260507053542 | 44 | 139 | 0.0 | 0.9 | 0.00 | 0.00 | 0.00 | 96 | 1017.7 |
| 20260507053040 | 44 | 139 | 0.0 | 0.0 | 0.00 | 0.00 | 0.00 | 96 | 1017.7 |
| 20260507052537 | 45 | 139 | 0.0 | 0.0 | 0.00 | 0.00 | 0.00 | 96 | 1017.7 |
| 20260507052034 | 45 | 139 | 0.0 | 0.0 | 0.00 | 0.00 | 0.00 | 96 | 1017.6 |
| 20260507051532 | 45 | 143 | 0.0 | 0.0 | 0.00 | 0.00 | 0.00 | 96 | 1017.6 |
| 20260507051029 | 45 | 143 | 0.0 | 0.0 | 0.00 | 0.00 | 0.00 | 96 | 1017.6 |
| 20260507050525 | 45 | 142 | 0.0 | 0.9 | 0.00 | 0.00 | 0.00 | 96 | 1017.5 |
| 20260507050021 | 45 | 145 | 0.0 | 0.0 | 0.00 | 0.00 | 0.00 | 96 | 1017.6 |
| 20260507045518 | 45 | 145 | 0.0 | 0.0 | 0.00 | 0.00 | 0.00 | 95 | 1017.5 |
| 20260507045016 | 45 | 145 | 0.0 | 0.0 | 0.00 | 0.00 | 0.00 | 95 | 1017.4 |
| 20260507044512 | 45 | 144 | 0.0 | 0.0 | 0.00 | 0.00 | 0.00 | 95 | 1017.5 |
| 20260507044008 | 46 | 144 | 0.0 | 0.0 | 0.00 | 0.00 | 0.00 | 95 | 1017.3 |
| 20260507043505 | 46 | 144 | 0.0 | 0.0 | 0.00 | 0.00 | 0.00 | 95 | 1017.5 |
| 20260507043001 | 46 | 144 | 0.0 | 0.0 | 0.00 | 0.00 | 0.00 | 95 | 1017.2 |
| 20260507042458 | 46 | 152 | 0.9 | 0.9 | 0.00 | 0.00 | 0.00 | 96 | 1017.2 |
| 20260507041954 | 45 | 127 | 0.9 | 1.7 | 0.00 | 0.00 | 0.00 | 96 | 1017.3 |
| 20260507041450 | 46 | 137 | 1.7 | 2.6 | 0.00 | 0.00 | 0.00 | 96 | 1017.1 |
| 20260507040948 | 46 | 134 | 0.9 | 0.9 | 0.00 | 0.00 | 0.00 | 95 | 1017.1 |
| 20260507040444 | 46 | 132 | 0.0 | 0.0 | 0.00 | 0.00 | 0.00 | 95 | 1017.1 |
| 20260507035939 | 46 | 132 | 0.0 | 0.0 | 0.00 | 0.00 | 0.00 | 95 | 1017.1 |
| 20260507035436 | 46 | 132 | 0.0 | 0.0 | 0.00 | 0.00 | 0.00 | 95 | 1017.2 |
| 20260507034933 | 46 | 132 | 0.0 | 0.0 | 0.00 | 0.00 | 0.00 | 95 | 1016.8 |
| 20260507034430 | 46 | 132 | 0.0 | 0.0 | 0.00 | 0.00 | 0.00 | 95 | 1016.9 |
| 20260507033928 | 46 | 132 | 0.0 | 0.0 | 0.00 | 0.00 | 0.00 | 95 | 1017.1 |
| 20260507033425 | 47 | 132 | 0.0 | 0.0 | 0.00 | 0.00 | 0.00 | 94 | 1017.0 |
| 20260507032922 | 47 | 132 | 0.0 | 0.0 | 0.00 | 0.00 | 0.00 | 94 | 1017.0 |
| 20260507032419 | 47 | 132 | 0.0 | 0.0 | 0.00 | 0.00 | 0.00 | 94 | 1017.1 |
| 20260507031915 | 48 | 132 | 0.0 | 0.0 | 0.00 | 0.00 | 0.00 | 93 | 1017.1 |
| 20260507031412 | 48 | 132 | 0.0 | 0.0 | 0.00 | 0.00 | 0.00 | 93 | 1016.9 |
| 20260507030909 | 48 | 132 | 0.0 | 0.0 | 0.00 | 0.00 | 0.00 | 93 | 1016.7 |
| 20260507030406 | 48 | 132 | 0.0 | 0.0 | 0.00 | 0.00 | 0.00 | 92 | 1016.8 |
| 20260507025903 | 48 | 132 | 0.0 | 0.0 | 0.00 | 0.00 | 0.00 | 92 | 1016.8 |
| 20260507025401 | 49 | 132 | 0.0 | 0.0 | 0.00 | 0.00 | 0.00 | 91 | 1016.8 |
| 20260507024858 | 49 | 132 | 0.0 | 0.0 | 0.00 | 0.00 | 0.00 | 91 | 1016.6 |
| 20260507024355 | 49 | 132 | 0.0 | 0.0 | 0.00 | 0.00 | 0.00 | 91 | 1016.7 |
| 20260507023850 | 49 | 132 | 0.0 | 0.0 | 0.00 | 0.00 | 0.00 | 91 | 1016.5 |
| 20260507023348 | 49 | 132 | 0.0 | 0.0 | 0.00 | 0.00 | 0.00 | 90 | 1016.6 |
| 20260507022845 | 49 | 132 | 0.0 | 0.0 | 0.00 | 0.00 | 0.00 | 89 | 1016.4 |
| 20260507022342 | 50 | 131 | 0.0 | 0.0 | 0.00 | 0.00 | 0.00 | 88 | 1016.5 |
| 20260507021837 | 50 | 131 | 0.0 | 0.0 | 0.00 | 0.00 | 0.00 | 88 | 1016.4 |
| 20260507021333 | 50 | 131 | 0.0 | 0.0 | 0.00 | 0.00 | 0.00 | 88 | 1016.3 |
| 20260507020831 | 50 | 132 | 0.0 | 0.0 | 0.00 | 0.00 | 0.00 | 86 | 1016.2 |
| 20260507020328 | 50 | 132 | 0.0 | 0.0 | 0.00 | 0.00 | 0.00 | 86 | 1016.1 |
| 20260507015825 | 51 | 132 | 0.0 | 0.0 | 0.00 | 0.00 | 0.00 | 86 | 1016.1 |
| 20260507015322 | 51 | 129 | 0.0 | 0.0 | 0.00 | 0.00 | 0.00 | 85 | 1016.1 |
| 20260507014819 | 52 | 129 | 0.0 | 0.0 | 0.00 | 0.00 | 0.00 | 85 | 1016.0 |
| 20260507014315 | 52 | 129 | 0.0 | 0.0 | 0.00 | 0.00 | 0.00 | 83 | 1016.0 |
| 20260507013812 | 53 | 129 | 0.0 | 0.0 | 0.00 | 0.00 | 0.00 | 81 | 1016.0 |
| 20260507013309 | 53 | 129 | 0.0 | 0.0 | 0.00 | 0.00 | 0.00 | 80 | 1015.9 |
| 20260507012807 | 53 | 129 | 0.0 | 0.0 | 0.00 | 0.00 | 0.00 | 79 | 1016.0 |
| 20260507012306 | 54 | 129 | 0.0 | 0.0 | 0.00 | 0.00 | 0.00 | 78 | 1015.7 |
| 20260507011800 | 55 | 129 | 0.0 | 0.0 | 0.00 | 0.00 | 0.00 | 76 | 1015.8 |
| 20260507011256 | 55 | 129 | 0.0 | 0.0 | 0.00 | 0.00 | 0.00 | 74 | 1015.6 |
| 20260507010756 | 56 | 129 | 0.0 | 0.0 | 0.00 | 0.00 | 0.00 | 73 | 1015.8 |
| 20260507010252 | 57 | 129 | 0.0 | 0.0 | 0.00 | 0.00 | 0.00 | 72 | 1015.8 |
| 20260507005750 | 58 | 129 | 0.0 | 0.0 | 0.00 | 0.00 | 0.00 | 70 | 1016.0 |
| 20260507005246 | 58 | 128 | 0.0 | 0.0 | 0.00 | 0.00 | 0.00 | 69 | 1015.9 |
| 20260507004742 | 58 | 129 | 0.0 | 0.9 | 0.00 | 0.00 | 0.00 | 68 | 1015.9 |
| 20260507004240 | 58 | 128 | 0.0 | 0.0 | 0.00 | 0.00 | 0.00 | 69 | 1015.8 |
| 20260507003736 | 58 | 128 | 0.0 | 0.0 | 0.00 | 0.00 | 0.00 | 70 | 1015.8 |
| 20260507003231 | 58 | 104 | 0.0 | 0.0 | 0.00 | 0.00 | 0.00 | 70 | 1015.8 |
| 20260507002728 | 58 | 68 | 0.9 | 1.7 | 0.00 | 0.00 | 0.00 | 69 | 1015.8 |
| 20260507002224 | 58 | 104 | 0.0 | 0.0 | 0.00 | 0.00 | 0.00 | 68 | 1016.0 |
| 20260507001721 | 59 | 112 | 1.7 | 1.7 | 0.00 | 0.00 | 0.00 | 66 | 1015.8 |
| 20260507001218 | 59 | 70 | 2.6 | 2.6 | 0.00 | 0.00 | 0.00 | 64 | 1015.7 |
| 20260507000714 | 59 | 46 | 2.6 | 2.6 | 0.00 | 0.00 | 0.00 | 61 | 1015.7 |
| 20260507000212 | 60 | 92 | 1.7 | 1.7 | 0.00 | 0.00 | 0.00 | 62 | 1015.8 |
| 20260506235708 | 60 | 57 | 0.9 | 0.9 | 0.00 | 0.00 | 0.00 | 62 | 1015.8 |
| 20260506235202 | 59 | 101 | 0.0 | 0.0 | 0.00 | 0.00 | 0.00 | 63 | 1015.6 |
| 20260506234700 | 60 | 113 | 1.7 | 2.6 | 0.00 | 0.00 | 0.00 | 63 | 1015.7 |
| 20260506234157 | 59 | 44 | 2.6 | 2.6 | 0.00 | 0.00 | 0.00 | 63 | 1015.6 |
| 20260506233654 | 60 | 43 | 2.6 | 2.6 | 0.00 | 0.00 | 0.00 | 63 | 1015.6 |
| 20260506233151 | 60 | 340 | 0.9 | 1.7 | 0.00 | 0.00 | 0.00 | 60 | 1015.6 |
| 20260506232647 | 60 | 3 | 0.9 | 0.9 | 0.00 | 0.00 | 0.00 | 61 | 1015.6 |
| 20260506232143 | 60 | 7 | 1.7 | 3.5 | 0.00 | 0.00 | 0.00 | 60 | 1015.7 |
| 20260506231640 | 60 | 38 | 1.7 | 2.6 | 0.00 | 0.00 | 0.00 | 62 | 1015.4 |
| 20260506231139 | 59 | 34 | 0.9 | 0.9 | 0.00 | 0.00 | 0.00 | 62 | 1015.6 |
| 20260506230635 | 60 | 10 | 2.6 | 3.5 | 0.00 | 0.00 | 0.00 | 62 | 1015.4 |
| 20260506230132 | 60 | 355 | 0.0 | 0.9 | 0.00 | 0.00 | 0.00 | 61 | 1015.7 |
| 20260506225628 | 60 | 42 | 0.9 | 1.7 | 0.00 | 0.00 | 0.00 | 61 | 1015.7 |
| 20260506225125 | 60 | 37 | 2.6 | 2.6 | 0.00 | 0.00 | 0.00 | 60 | 1015.3 |
| 20260506224622 | 60 | 12 | 2.6 | 3.5 | 0.00 | 0.00 | 0.00 | 60 | 1015.2 |
| 20260506224118 | 60 | 22 | 5.2 | 6.1 | 0.00 | 0.00 | 0.00 | 61 | 1015.1 |
| 20260506223614 | 60 | 358 | 3.5 | 5.2 | 0.00 | 0.00 | 0.00 | 61 | 1014.9 |
| 20260506223110 | 60 | 11 | 4.3 | 6.1 | 0.00 | 0.00 | 0.00 | 60 | 1014.6 |
| 20260506222608 | 61 | 0 | 0.9 | 1.7 | 0.00 | 0.00 | 0.00 | 59 | 1014.7 |
| 20260506222104 | 61 | 39 | 2.6 | 3.5 | 0.00 | 0.00 | 0.00 | 61 | 1014.4 |
| 20260506221602 | 60 | 5 | 3.5 | 3.5 | 0.00 | 0.00 | 0.00 | 60 | 1014.5 |
| 20260506221100 | 60 | 11 | 2.6 | 3.5 | 0.00 | 0.00 | 0.00 | 60 | 1014.4 |
| 20260506220555 | 61 | 339 | 2.6 | 3.5 | 0.00 | 0.00 | 0.00 | 59 | 1014.2 |
| 20260506220051 | 60 | 9 | 2.6 | 3.5 | 0.00 | 0.00 | 0.00 | 60 | 1014.2 |
| 20260506215548 | 60 | 21 | 3.5 | 6.1 | 0.00 | 0.00 | 0.00 | 60 | 1014.0 |
| 20260506215043 | 61 | 57 | 9.6 | 12.2 | 0.00 | 0.00 | 0.00 | 58 | 1014.2 |
| 20260506214541 | 61 | 48 | 1.7 | 2.6 | 0.00 | 0.00 | 0.00 | 60 | 1014.2 |
| 20260506214038 | 61 | 8 | 3.5 | 6.1 | 0.00 | 0.00 | 0.00 | 59 | 1014.4 |
| 20260506213536 | 61 | 353 | 3.5 | 5.2 | 0.00 | 0.00 | 0.00 | 58 | 1014.3 |
| 20260506213033 | 61 | 50 | 1.7 | 2.6 | 0.00 | 0.00 | 0.00 | 59 | 1014.6 |
| 20260506212529 | 61 | 43 | 6.1 | 7.8 | 0.00 | 0.00 | 0.00 | 59 | 1014.6 |
| 20260506212024 | 60 | 14 | 3.5 | 7.0 | 0.00 | 0.00 | 0.00 | 58 | 1014.5 |
| 20260506211521 | 60 | 3 | 2.6 | 3.5 | 0.00 | 0.00 | 0.00 | 59 | 1014.5 |
| 20260506211018 | 60 | 55 | 3.5 | 5.2 | 0.00 | 0.00 | 0.00 | 60 | 1014.6 |
| 20260506210514 | 59 | 44 | 3.5 | 7.8 | 0.00 | 0.00 | 0.00 | 60 | 1014.9 |
| 20260506210011 | 60 | 22 | 0.9 | 1.7 | 0.00 | 0.00 | 0.00 | 60 | 1014.7 |
| 20260506205508 | 59 | 337 | 1.7 | 2.6 | 0.00 | 0.00 | 0.00 | 59 | 1014.9 |
| 20260506205003 | 60 | 19 | 4.3 | 6.1 | 0.00 | 0.00 | 0.00 | 58 | 1014.7 |
| 20260506204502 | 60 | 63 | 3.5 | 3.5 | 0.00 | 0.00 | 0.00 | 59 | 1014.7 |
| 20260506203958 | 61 | 53 | 1.7 | 3.5 | 0.00 | 0.00 | 0.00 | 58 | 1015.0 |
| 20260506203456 | 61 | 3 | 3.5 | 5.2 | 0.00 | 0.00 | 0.00 | 57 | 1015.2 |
| 20260506202953 | 60 | 19 | 0.9 | 1.7 | 0.00 | 0.00 | 0.00 | 59 | 1015.4 |
| 20260506202450 | 59 | 44 | 2.6 | 3.5 | 0.00 | 0.00 | 0.00 | 61 | 1015.4 |
| 20260506201946 | 59 | 67 | 1.7 | 3.5 | 0.00 | 0.00 | 0.00 | 62 | 1015.6 |
| 20260506201444 | 60 | 79 | 2.6 | 2.6 | 0.00 | 0.00 | 0.00 | 62 | 1015.6 |
| 20260506200940 | 60 | 64 | 1.7 | 2.6 | 0.00 | 0.00 | 0.00 | 59 | 1015.9 |
| 20260506200437 | 60 | 32 | 2.6 | 2.6 | 0.00 | 0.00 | 0.00 | 58 | 1015.8 |
| 20260506195933 | 59 | 39 | 3.5 | 5.2 | 0.00 | 0.00 | 0.00 | 58 | 1015.8 |
| 20260506195430 | 60 | 46 | 5.2 | 6.1 | 0.00 | 0.00 | 0.00 | 58 | 1015.8 |
| 20260506194927 | 59 | 44 | 3.5 | 5.2 | 0.00 | 0.00 | 0.00 | 58 | 1015.7 |
| 20260506194424 | 60 | 8 | 3.5 | 5.2 | 0.00 | 0.00 | 0.00 | 56 | 1016.0 |
| 20260506193916 | 60 | 38 | 1.7 | 2.6 | 0.00 | 0.00 | 0.00 | 57 | 1016.3 |
| 20260506193413 | 62 | 116 | 2.6 | 2.6 | 0.00 | 0.00 | 0.00 | 52 | 1016.3 |
| 20260506192909 | 60 | 349 | 3.5 | 5.2 | 0.00 | 0.00 | 0.00 | 53 | 1016.4 |
| 20260506192406 | 61 | 3 | 3.5 | 3.5 | 0.00 | 0.00 | 0.00 | 54 | 1016.4 |
| 20260506191903 | 60 | 321 | 2.6 | 3.5 | 0.00 | 0.00 | 0.00 | 55 | 1016.2 |
| 20260506191359 | 61 | 352 | 7.0 | 8.7 | 0.00 | 0.00 | 0.00 | 54 | 1016.6 |
| 20260506190856 | 61 | 34 | 3.5 | 3.5 | 0.00 | 0.00 | 0.00 | 53 | 1016.6 |
| 20260506190352 | 61 | 83 | 5.2 | 7.8 | 0.00 | 0.00 | 0.00 | 54 | 1016.4 |
| 20260506185849 | 60 | 20 | 2.6 | 2.6 | 0.00 | 0.00 | 0.00 | 53 | 1016.6 |
| 20260506185346 | 62 | 55 | 2.6 | 3.5 | 0.00 | 0.00 | 0.00 | 54 | 1016.5 |
| 20260506184843 | 61 | 15 | 5.2 | 7.0 | 0.00 | 0.00 | 0.00 | 56 | 1016.4 |
| 20260506184340 | 59 | 0 | 7.0 | 9.6 | 0.00 | 0.00 | 0.00 | 59 | 1016.5 |
| 20260506183837 | 58 | 30 | 4.3 | 7.0 | 0.00 | 0.00 | 0.00 | 62 | 1016.4 |
| 20260506183332 | 59 | 32 | 7.0 | 7.8 | 0.00 | 0.00 | 0.00 | 60 | 1016.4 |
| 20260506182830 | 58 | 14 | 4.3 | 5.2 | 0.00 | 0.00 | 0.00 | 63 | 1016.6 |
| 20260506182327 | 58 | 1 | 3.5 | 5.2 | 0.00 | 0.00 | 0.00 | 66 | 1016.6 |
| 20260506181825 | 58 | 6 | 5.2 | 6.1 | 0.00 | 0.00 | 0.00 | 64 | 1016.6 |
| 20260506181322 | 59 | 4 | 3.5 | 6.1 | 0.00 | 0.00 | 0.00 | 63 | 1016.6 |
| 20260506180819 | 57 | 24 | 2.6 | 3.5 | 0.00 | 0.00 | 0.00 | 67 | 1016.6 |
| 20260506180315 | 59 | 12 | 5.2 | 7.0 | 0.00 | 0.00 | 0.00 | 65 | 1016.7 |
| 20260506175811 | 59 | 37 | 1.7 | 2.6 | 0.00 | 0.00 | 0.00 | 64 | 1016.7 |
| 20260506175308 | 57 | 5 | 7.8 | 9.6 | 0.00 | 0.00 | 0.00 | 65 | 1016.8 |
| 20260506174806 | 59 | 22 | 3.5 | 7.0 | 0.00 | 0.00 | 0.00 | 64 | 1017.0 |
| 20260506174303 | 59 | 44 | 1.7 | 1.7 | 0.00 | 0.00 | 0.00 | 64 | 1016.8 |
| 20260506173800 | 58 | 4 | 2.6 | 2.6 | 0.00 | 0.00 | 0.00 | 66 | 1016.9 |
| 20260506173257 | 57 | 39 | 3.5 | 5.2 | 0.00 | 0.00 | 0.00 | 66 | 1017.1 |
| 20260506172754 | 58 | 36 | 1.7 | 1.7 | 0.00 | 0.00 | 0.00 | 66 | 1017.5 |
| 20260506172250 | 57 | 52 | 0.0 | 0.0 | 0.00 | 0.00 | 0.00 | 65 | 1017.3 |
| 20260506171748 | 57 | 27 | 0.9 | 2.6 | 0.00 | 0.00 | 0.00 | 67 | 1017.5 |
| 20260506171245 | 57 | 19 | 4.3 | 6.1 | 0.00 | 0.00 | 0.00 | 65 | 1017.4 |
| 20260506170743 | 55 | 75 | 1.7 | 5.2 | 0.00 | 0.00 | 0.00 | 67 | 1017.5 |
| 20260506170239 | 55 | 37 | 2.6 | 3.5 | 0.00 | 0.00 | 0.00 | 67 | 1017.4 |
| 20260506165738 | 56 | 59 | 4.3 | 7.0 | 0.00 | 0.00 | 0.00 | 66 | 1017.5 |
| 20260506165234 | 56 | 19 | 2.6 | 3.5 | 0.00 | 0.00 | 0.00 | 67 | 1017.3 |
| 20260506164732 | 56 | 19 | 5.2 | 6.1 | 0.00 | 0.00 | 0.00 | 67 | 1016.9 |
| 20260506164228 | 56 | 331 | 1.7 | 2.6 | 0.00 | 0.00 | 0.00 | 66 | 1017.1 |
| 20260506163725 | 57 | 29 | 2.6 | 3.5 | 0.00 | 0.00 | 0.00 | 65 | 1017.1 |
| 20260506163220 | 56 | 80 | 2.6 | 5.2 | 0.00 | 0.00 | 0.00 | 67 | 1016.9 |
| 20260506162716 | 55 | 48 | 6.1 | 7.8 | 0.00 | 0.00 | 0.00 | 67 | 1016.7 |
| 20260506162214 | 55 | 39 | 5.2 | 7.8 | 0.00 | 0.00 | 0.00 | 67 | 1016.6 |
| 20260506161711 | 54 | 61 | 6.1 | 9.6 | 0.00 | 0.00 | 0.00 | 69 | 1016.4 |
| 20260506161203 | 55 | 35 | 2.6 | 5.2 | 0.00 | 0.00 | 0.00 | 67 | 1016.5 |
| 20260506160700 | 55 | 50 | 6.1 | 7.8 | 0.00 | 0.00 | 0.00 | 67 | 1016.5 |
| 20260506160157 | 54 | 27 | 2.6 | 3.5 | 0.00 | 0.00 | 0.00 | 69 | 1016.5 |
| 20260506155656 | 54 | 71 | 1.7 | 2.6 | 0.00 | 0.00 | 0.00 | 69 | 1016.6 |
| 20260506155152 | 53 | 51 | 2.6 | 5.2 | 0.00 | 0.00 | 0.00 | 71 | 1015.9 |
| 20260506153259 | 53 | 15 | 7.0 | 8.7 | 0.00 | 0.00 | 0.00 | 70 | 1015.8 |
| 20260506152756 | 53 | 19 | 5.2 | 7.0 | 0.00 | 0.00 | 0.00 | 72 | 1016.1 |
| 20260506152254 | 53 | 94 | 7.8 | 11.3 | 0.00 | 0.00 | 0.00 | 70 | 1016.2 |
| 20260506151753 | 53 | 85 | 2.6 | 5.2 | 0.00 | 0.00 | 0.00 | 71 | 1015.9 |
| 20260506151249 | 53 | 27 | 6.1 | 8.7 | 0.00 | 0.00 | 0.00 | 71 | 1016.4 |
| 20260506150745 | 53 | 36 | 5.2 | 6.1 | 0.00 | 0.00 | 0.00 | 70 | 1016.4 |
| 20260506150243 | 55 | 11 | 1.7 | 3.5 | 0.00 | 0.00 | 0.00 | 69 | 1016.5 |
| 20260506145739 | 54 | 50 | 6.1 | 7.8 | 0.00 | 0.00 | 0.00 | 70 | 1016.1 |
| 20260506145235 | 53 | 73 | 3.5 | 5.2 | 0.00 | 0.00 | 0.00 | 71 | 1016.4 |
| 20260506144733 | 52 | 73 | 2.6 | 3.5 | 0.00 | 0.00 | 0.00 | 74 | 1016.3 |
| 20260506144230 | 51 | 50 | 3.5 | 6.1 | 0.00 | 0.00 | 0.00 | 76 | 1016.0 |
| 20260506143728 | 50 | 115 | 8.7 | 11.3 | 0.00 | 0.00 | 0.00 | 76 | 1015.8 |
| 20260506143226 | 51 | 36 | 5.2 | 7.8 | 0.00 | 0.00 | 0.00 | 77 | 1016.0 |
| 20260506142724 | 51 | 25 | 4.3 | 7.8 | 0.00 | 0.00 | 0.00 | 77 | 1015.7 |
| 20260506142221 | 51 | 10 | 3.5 | 7.0 | 0.00 | 0.00 | 0.00 | 77 | 1015.9 |
| 20260506141719 | 51 | 20 | 5.2 | 7.0 | 0.00 | 0.00 | 0.00 | 77 | 1015.8 |
| 20260506141217 | 51 | 5 | 7.0 | 11.3 | 0.00 | 0.00 | 0.00 | 76 | 1015.7 |
| 20260506140714 | 50 | 28 | 2.6 | 6.1 | 0.00 | 0.00 | 0.00 | 78 | 1015.8 |
| 20260506140211 | 50 | 3 | 1.7 | 1.7 | 0.00 | 0.00 | 0.00 | 78 | 1015.7 |
| 20260506135708 | 50 | 341 | 3.5 | 6.1 | 0.00 | 0.00 | 0.00 | 78 | 1015.6 |
| 20260506135204 | 51 | 353 | 4.3 | 7.0 | 0.00 | 0.00 | 0.00 | 77 | 1015.4 |
| 20260506134701 | 51 | 6 | 2.6 | 2.6 | 0.00 | 0.00 | 0.00 | 78 | 1015.7 |
| 20260506134157 | 50 | 31 | 3.5 | 5.2 | 0.00 | 0.00 | 0.00 | 78 | 1016.0 |
| 20260506133654 | 50 | 358 | 5.2 | 7.8 | 0.00 | 0.00 | 0.00 | 79 | 1016.0 |
| 20260506133151 | 50 | 16 | 2.6 | 2.6 | 0.00 | 0.00 | 0.00 | 78 | 1016.0 |
| 20260506132648 | 50 | 78 | 0.0 | 0.9 | 0.00 | 0.00 | 0.00 | 80 | 1016.0 |
| 20260506132145 | 50 | 31 | 5.2 | 7.0 | 0.00 | 0.00 | 0.00 | 78 | 1016.1 |
| 20260506131643 | 49 | 40 | 4.3 | 7.0 | 0.00 | 0.00 | 0.00 | 79 | 1016.0 |
| 20260506131139 | 49 | 6 | 3.5 | 5.2 | 0.00 | 0.00 | 0.00 | 78 | 1015.9 |
| 20260506130636 | 49 | 47 | 4.3 | 6.1 | 0.00 | 0.00 | 0.00 | 78 | 1015.8 |
| 20260506130133 | 49 | 318 | 3.5 | 5.2 | 0.00 | 0.00 | 0.00 | 78 | 1016.0 |
| 20260506125631 | 49 | 353 | 1.7 | 1.7 | 0.00 | 0.00 | 0.00 | 78 | 1015.8 |
| 20260506125129 | 49 | 15 | 4.3 | 6.1 | 0.00 | 0.00 | 0.00 | 78 | 1015.9 |
| 20260506124626 | 49 | 34 | 1.7 | 1.7 | 0.00 | 0.00 | 0.00 | 79 | 1015.9 |
| 20260506124124 | 48 | 357 | 2.6 | 3.5 | 0.00 | 0.00 | 0.00 | 79 | 1015.7 |
| 20260506123622 | 48 | 6 | 2.6 | 3.5 | 0.00 | 0.00 | 0.00 | 80 | 1015.6 |
| 20260506123120 | 48 | 15 | 4.3 | 7.0 | 0.00 | 0.00 | 0.00 | 79 | 1015.6 |
| 20260506122616 | 48 | 20 | 2.6 | 3.5 | 0.00 | 0.00 | 0.00 | 80 | 1015.2 |
| 20260506122114 | 48 | 51 | 6.1 | 8.7 | 0.00 | 0.00 | 0.00 | 80 | 1015.2 |
| 20260506121612 | 48 | 338 | 2.6 | 3.5 | 0.00 | 0.00 | 0.00 | 80 | 1015.2 |
| 20260506121108 | 48 | 68 | 2.6 | 3.5 | 0.00 | 0.00 | 0.00 | 81 | 1015.0 |
| 20260506120606 | 48 | 349 | 4.3 | 6.1 | 0.00 | 0.00 | 0.00 | 81 | 1014.6 |
| 20260506115601 | 48 | 65 | 2.6 | 3.5 | 0.00 | 0.00 | 0.00 | 79 | 1014.9 |
| 20260506115059 | 48 | 26 | 1.7 | 2.6 | 0.00 | 0.00 | 0.00 | 79 | 1014.6 |
| 20260506114556 | 48 | 33 | 2.6 | 3.5 | 0.00 | 0.00 | 0.00 | 79 | 1014.6 |
| 20260506114054 | 48 | 22 | 2.6 | 3.5 | 0.00 | 0.00 | 0.00 | 78 | 1014.8 |
| 20260506113552 | 48 | 22 | 3.5 | 5.2 | 0.00 | 0.00 | 0.00 | 79 | 1014.5 |
| 20260506113049 | 48 | 342 | 2.6 | 2.6 | 0.00 | 0.00 | 0.00 | 79 | 1014.2 |
| 20260506112545 | 48 | 358 | 4.3 | 6.1 | 0.00 | 0.00 | 0.00 | 79 | 1014.4 |
| 20260506112043 | 48 | 19 | 5.2 | 7.0 | 0.00 | 0.00 | 0.00 | 81 | 1014.3 |
| 20260506111541 | 48 | 21 | 2.6 | 2.6 | 0.00 | 0.00 | 0.00 | 82 | 1014.0 |
| 20260506111038 | 48 | 19 | 3.5 | 5.2 | 0.00 | 0.00 | 0.00 | 82 | 1013.9 |
| 20260506110535 | 48 | 38 | 1.7 | 1.7 | 0.00 | 0.00 | 0.00 | 80 | 1014.1 |
| 20260506110033 | 48 | 64 | 2.6 | 2.6 | 0.00 | 0.00 | 0.00 | 80 | 1014.2 |
| 20260506105528 | 48 | 60 | 3.5 | 5.2 | 0.00 | 0.00 | 0.00 | 80 | 1014.1 |
| 20260506105026 | 48 | 53 | 1.7 | 2.6 | 0.00 | 0.00 | 0.00 | 81 | 1013.7 |
| 20260506104524 | 48 | 5 | 1.7 | 2.6 | 0.00 | 0.00 | 0.00 | 81 | 1013.7 |
| 20260506104022 | 48 | 49 | 3.5 | 3.5 | 0.00 | 0.00 | 0.00 | 81 | 1013.5 |
| 20260506103519 | 48 | 58 | 5.2 | 7.0 | 0.00 | 0.00 | 0.00 | 81 | 1013.6 |
| 20260506103015 | 48 | 0 | 3.5 | 5.2 | 0.00 | 0.00 | 0.00 | 81 | 1013.5 |
| 20260506102514 | 48 | 346 | 0.0 | 0.0 | 0.00 | 0.00 | 0.00 | 81 | 1013.2 |
| 20260506102011 | 48 | 48 | 0.9 | 1.7 | 0.00 | 0.00 | 0.00 | 80 | 1013.0 |
| 20260506101507 | 48 | 31 | 2.6 | 3.5 | 0.00 | 0.00 | 0.00 | 79 | 1013.1 |
| 20260506101004 | 48 | 52 | 1.7 | 2.6 | 0.00 | 0.00 | 0.00 | 79 | 1012.9 |
| 20260506100503 | 48 | 39 | 2.6 | 3.5 | 0.00 | 0.00 | 0.00 | 79 | 1012.4 |
| 20260506100000 | 48 | 28 | 4.3 | 5.2 | 0.00 | 0.00 | 0.00 | 79 | 1012.6 |
| 20260506095459 | 48 | 81 | 1.7 | 2.6 | 0.00 | 0.00 | 0.00 | 79 | 1012.3 |
| 20260506094954 | 48 | 38 | 7.8 | 11.3 | 0.00 | 0.00 | 0.00 | 79 | 1012.3 |
| 20260506094453 | 48 | 41 | 1.7 | 2.6 | 0.00 | 0.00 | 0.00 | 80 | 1011.9 |
| 20260506093950 | 48 | 31 | 3.5 | 3.5 | 0.00 | 0.00 | 0.00 | 81 | 1011.7 |
| 20260506093448 | 48 | 102 | 3.5 | 6.1 | 0.00 | 0.00 | 0.00 | 81 | 1011.7 |
| 20260506092946 | 48 | 45 | 3.5 | 6.1 | 0.00 | 0.00 | 0.00 | 80 | 1011.8 |
| 20260506092443 | 48 | 72 | 2.6 | 7.8 | 0.00 | 0.00 | 0.00 | 82 | 1011.9 |
| 20260506091940 | 48 | 24 | 3.5 | 3.5 | 0.00 | 0.00 | 0.00 | 82 | 1011.8 |
| 20260506091438 | 48 | 56 | 1.7 | 2.6 | 0.00 | 0.00 | 0.00 | 83 | 1011.9 |
| 20260506090935 | 48 | 47 | 3.5 | 3.5 | 0.00 | 0.00 | 0.00 | 83 | 1011.9 |
| 20260506090433 | 48 | 41 | 4.3 | 6.1 | 0.00 | 0.00 | 0.00 | 82 | 1011.9 |
| 20260506085929 | 48 | 36 | 2.6 | 5.2 | 0.00 | 0.00 | 0.00 | 84 | 1012.1 |
| 20260506085426 | 48 | 53 | 3.5 | 6.1 | 0.00 | 0.00 | 0.00 | 84 | 1012.1 |
| 20260506084922 | 48 | 53 | 2.6 | 5.2 | 0.00 | 0.00 | 0.00 | 84 | 1011.7 |
| 20260506084420 | 48 | 2 | 5.2 | 6.1 | 0.00 | 0.00 | 0.00 | 84 | 1011.7 |
| 20260506083915 | 48 | 102 | 3.5 | 3.5 | 0.00 | 0.00 | 0.00 | 86 | 1011.7 |
| 20260506083413 | 48 | 33 | 3.5 | 3.5 | 0.00 | 0.00 | 0.00 | 87 | 1011.9 |
| 20260506082910 | 48 | 78 | 3.5 | 6.1 | 0.00 | 0.00 | 0.00 | 87 | 1011.8 |
| 20260506082407 | 48 | 20 | 2.6 | 3.5 | 0.00 | 0.00 | 0.00 | 88 | 1011.7 |
| 20260506081902 | 48 | 32 | 3.5 | 3.5 | 0.00 | 0.00 | 0.00 | 88 | 1011.4 |
| 20260506081401 | 48 | 17 | 4.3 | 5.2 | 0.00 | 0.00 | 0.00 | 88 | 1011.1 |
| 20260506080858 | 48 | 335 | 0.9 | 1.7 | 0.00 | 0.00 | 0.00 | 88 | 1011.2 |
| 20260506080355 | 48 | 29 | 3.5 | 5.2 | 0.00 | 0.00 | 0.00 | 88 | 1010.9 |
| 20260506073339 | 48 | 14 | 6.1 | 7.0 | 0.00 | 0.00 | 0.00 | 91 | 1011.1 |
| 20260506072835 | 48 | 17 | 3.5 | 3.5 | 0.00 | 0.00 | 0.00 | 91 | 1011.4 |
| 20260506072333 | 48 | 14 | 2.6 | 3.5 | 0.00 | 0.00 | 0.00 | 92 | 1011.1 |
| 20260506071831 | 48 | 31 | 4.3 | 7.8 | 0.00 | 0.00 | 0.00 | 92 | 1011.0 |
| 20260506071329 | 48 | 44 | 3.5 | 3.5 | 0.00 | 0.00 | 0.00 | 91 | 1011.3 |
| 20260506070825 | 48 | 58 | 2.6 | 2.6 | 0.00 | 0.00 | 0.00 | 91 | 1011.5 |
| 20260506070323 | 48 | 39 | 6.1 | 9.6 | 0.00 | 0.00 | 0.00 | 91 | 1011.4 |